Location: Pardubice
(50.0330°N, 15.7830°E)
Time: 21:20:16
(UTC+01:00)

Vanguard 2 Rocket - Pass Details

Date: 16 October 2024
Orbit: 553 x 3297 km, 32.9° (Epoch: 01 November)

Event Time Altitude Azimuth Distance (km) Brightness Sun altitude
Rises 17:09:56 0° 226° (SW) 4,834 12.2 7.2°
Reaches altitude 10° 17:15:30 10° 204° (SSW) 3,213 10.5 6.4°
Maximum altitude 17:18:59 14° 177° (S) 2,558 9.5 5.9°
Drops below altitude 10° 17:21:51 10° 147° (SSE) 2,519 9.1 5.5°
Sets 17:25:14 0° 120° (ESE) 3,127 9.3 5.0°
